Regional Weather Roundup
Issued by NWS

Home | Current Version | Previous Version | Text Only | Print | Product List | Glossary Off
Versions: 1 2 3 4 5 6 7 8 9 10 11 12 13 14 15 16 17 18 19 20 21 22 23 24 25 26 27

000
ASUS45 KCYS 161510
RWRWY

WYOMING REGIONAL WEATHER ROUNDUP
NATIONAL WEATHER SERVICE CHEYENNE WY
900 AM MDT WED APR 16 2014

NOTE:  "FAIR" INDICATES FEW OR NO CLOUDS BELOW 12,000 FEET
WITH NO SIGNIFICANT WEATHER AND/OR OBSTRUCTIONS TO VISIBILITY.

WYZ001-161600-
YELLOWSTONE NATIONAL PARK

CITY           SKY/WX    TMP DP  RH WIND       PRES   REMARKS
LK YELLOWSTONE   N/A     19  15  84 CALM      30.00R
W YELLOWSTONE  NOT AVBL

$$
WYZ002>013-054>058-071-098>099-161600-
NORTHERN WYOMING

CITY           SKY/WX    TMP DP  RH WIND       PRES   REMARKS
JACKSON        SUNNY     27  21  80 MISG      30.00S
CODY           SUNNY     37  27  65 CALM      29.95S
GREYBULL       MOSUNNY   39  32  76 NW7       29.96R WCI  34
WORLAND        CLOUDY    39  31  72 NW6       29.97R WCI  35
SHERIDAN       CLOUDY    39  33  79 NW18G28   29.95R WCI  30
BUFFALO        MOSUNNY   36  29  75 NW23G30   29.93R WCI  24
GILLETTE       MOSUNNY   38  30  73 NW22      29.92R WCI  27
HULETT         FAIR      36  30  80 NW9       29.91  WCI  29
NEWCASTLE      FAIR      36  32  87 NW20G30   29.88  WCI  25

$$
WYZ014>020-022>026-101>103-161600-
CENTRAL WYOMING

CITY           SKY/WX    TMP DP  RH WIND       PRES   REMARKS
BIG PINEY      MOSUNNY   30  17  58 N7        30.00R WCI  23
PINEDALE       SUNNY     23  18  80 CALM      29.99S
DUBOIS         FAIR      28  14  54 NW14      29.95S WCI  17
LANDER         SUNNY     36  29  75 SE5       29.96R WCI  32
RIVERTON       MOSUNNY   35  29  78 S8        29.97R WCI  29
CASPER         CLOUDY    34  29  82 W7        29.95R WCI  28
DOUGLAS        CLOUDY    37  30  75 NW16      29.94R WCI  28

$$
WYZ021-027>030-104>119-161600-
SOUTHERN WYOMING

CITY           SKY/WX    TMP DP  RH WIND       PRES   REMARKS
EVANSTON       PTSUNNY   33  12  41 CALM      30.00R
KEMMERER       SUNNY     32  14  47 NW6       29.99  WCI  26
FORT BRIDGER   FAIR      35  13  41 NW7       30.03R WCI  29
ROCK SPRINGS   MOSUNNY   33  11  39 NW12      29.98R WCI  24
DIXON          FAIR      37  22  55 W10       30.02R WCI  29
RAWLINS        CLOUDY    31  24  75 N5        29.97R WCI  26
SARATOGA       FAIR      34  19  55 W13       29.97S WCI  25
LARAMIE        MOSUNNY   30  25  81 NW17      29.92R WCI  18
CHEYENNE       PTSUNNY   36  23  59 NW18G30   29.90R WCI  26
TORRINGTON     CLOUDY    42  29  59 NW21G33   29.88R
PINE BLUFFS    CLOUDY    37  30  75 NW25G36   29.89S WCI  26

$$



USA.gov is the U.S. government's official web portal to all federal, state and local government web resources and services.